TAP6767 LPMA-GCLP

Flight info

Callsign TAP6767
Flight time 1h 5m
Altitude 37000
Route GOSGA DCT ORTIS
Aircraft A339/H-SADE1E2E3GHIJ3J5M1P2RWXY/LB2D1

Departure

Time 2026-05-04 15:44
Airport Cristiano Ronaldo International Airport (LPMA)

Arrival

Time 2026-05-04 16:49
Airport Gran Canaria Airport (GCLP)
Time Latitude Longitude Altitude Speed Heading
2026-05-04 15:23 32.69442 -16.77561 182 ft 0 kts 138°
2026-05-04 15:33 32.69460 -16.77579 182 ft 3 kts 138°
2026-05-04 15:34 32.69472 -16.77589 182 ft 0 kts 122°
2026-05-04 15:34 32.69479 -16.77601 182 ft 2 kts 112°
2026-05-04 15:35 32.69479 -16.77626 182 ft 0 kts 46°
2026-05-04 15:36 32.69497 -16.77604 182 ft 7 kts 46°
2026-05-04 15:36 32.69541 -16.77548 182 ft 11 kts 46°
2026-05-04 15:36 32.69598 -16.77477 182 ft 11 kts 47°
2026-05-04 15:37 32.69625 -16.77443 182 ft 4 kts 46°
2026-05-04 15:37 32.69660 -16.77399 182 ft 9 kts 46°
2026-05-04 15:37 32.69715 -16.77332 182 ft 12 kts 46°
2026-05-04 15:37 32.69770 -16.77263 182 ft 7 kts 45°
2026-05-04 15:38 32.69791 -16.77237 182 ft 0 kts 45°
2026-05-04 15:38 32.69798 -16.77229 182 ft 0 kts 46°
2026-05-04 15:40 32.69826 -16.77197 182 ft 11 kts 40°
2026-05-04 15:41 32.69920 -16.77179 182 ft 16 kts 359°
2026-05-04 15:41 32.70042 -16.77148 182 ft 20 kts 38°
2026-05-04 15:41 32.70151 -16.77023 182 ft 22 kts 45°
2026-05-04 15:41 32.70263 -16.76891 182 ft 24 kts 45°
2026-05-04 15:42 32.70395 -16.76738 182 ft 29 kts 45°
2026-05-04 15:42 32.70541 -16.76567 182 ft 22 kts 44°
2026-05-04 15:42 32.70655 -16.76487 182 ft 17 kts 15°
2026-05-04 15:42 32.70670 -16.76435 182 ft 2 kts 132°
2026-05-04 15:43 32.70652 -16.76437 182 ft 2 kts 186°
2026-05-04 15:43 32.70605 -16.76490 182 ft 35 kts 224°
2026-05-04 15:43 32.70146 -16.77026 182 ft 144 kts 224°
2026-05-04 15:43 32.69273 -16.78043 479 ft 191 kts 223°
2026-05-04 15:44 32.68258 -16.79171 1175 ft 212 kts 218°
2026-05-04 15:44 32.66893 -16.79915 2097 ft 218 kts 191°
2026-05-04 15:44 32.65348 -16.79795 2967 ft 231 kts 166°
2026-05-04 15:44 32.63790 -16.79109 3644 ft 247 kts 159°
2026-05-04 15:45 32.62148 -16.78318 4223 ft 262 kts 161°
2026-05-04 15:45 32.60404 -16.77613 4815 ft 267 kts 164°
2026-05-04 15:45 32.58590 -16.77108 5478 ft 270 kts 171°
2026-05-04 15:45 32.56734 -16.76778 6450 ft 271 kts 173°
2026-05-04 15:46 32.54855 -16.76478 7312 ft 275 kts 174°
2026-05-04 15:46 32.52940 -16.76162 8155 ft 280 kts 174°
2026-05-04 15:46 32.50988 -16.75823 9064 ft 285 kts 174°
2026-05-04 15:46 32.49003 -16.75465 9993 ft 292 kts 174°
2026-05-04 15:47 32.46968 -16.75093 10667 ft 305 kts 174°
2026-05-04 15:47 32.44790 -16.74696 10981 ft 328 kts 174°
2026-05-04 15:47 32.42471 -16.74270 11397 ft 343 kts 174°
2026-05-04 15:47 32.40102 -16.73830 12185 ft 346 kts 174°
2026-05-04 15:48 32.37675 -16.73378 12981 ft 350 kts 174°
2026-05-04 15:48 32.35293 -16.72936 13758 ft 353 kts 174°
2026-05-04 15:48 32.30388 -16.72032 15118 ft 361 kts 174°
2026-05-04 15:49 32.27893 -16.71572 15793 ft 364 kts 174°
2026-05-04 15:49 32.25372 -16.71109 16457 ft 368 kts 174°
2026-05-04 15:49 32.22826 -16.70640 17112 ft 372 kts 175°
2026-05-04 15:49 32.20254 -16.70168 17760 ft 376 kts 175°
2026-05-04 15:50 32.17653 -16.69692 18393 ft 381 kts 174°
2026-05-04 15:50 32.15021 -16.69210 18975 ft 384 kts 174°
2026-05-04 15:50 32.12371 -16.68723 19584 ft 387 kts 174°
2026-05-04 15:50 32.09707 -16.68234 20189 ft 390 kts 175°
2026-05-04 15:51 32.07011 -16.67741 20839 ft 394 kts 175°
2026-05-04 15:51 32.04290 -16.67244 21486 ft 396 kts 175°
2026-05-04 15:51 32.01551 -16.66741 22064 ft 400 kts 175°
2026-05-04 15:51 31.98797 -16.66236 22793 ft 400 kts 175°
2026-05-04 15:52 31.96052 -16.65734 23590 ft 399 kts 175°
2026-05-04 15:52 31.93312 -16.65233 24282 ft 397 kts 175°
2026-05-04 15:52 31.90583 -16.64735 24969 ft 396 kts 175°
2026-05-04 15:52 31.87874 -16.64241 25677 ft 393 kts 175°
2026-05-04 15:53 31.85176 -16.63749 26405 ft 390 kts 175°
2026-05-04 15:53 31.82507 -16.63263 27146 ft 387 kts 175°
2026-05-04 15:53 31.79860 -16.62781 27910 ft 383 kts 175°
2026-05-04 15:53 31.77245 -16.62304 28683 ft 378 kts 175°
2026-05-04 15:54 31.74661 -16.61834 29489 ft 373 kts 175°
2026-05-04 15:54 31.72118 -16.61371 30296 ft 367 kts 175°
2026-05-04 15:54 31.69617 -16.60916 31007 ft 360 kts 175°
2026-05-04 15:54 31.67216 -16.60479 31725 ft 353 kts 175°
2026-05-04 15:55 31.64815 -16.60041 32470 ft 345 kts 176°
2026-05-04 15:55 31.62474 -16.59615 33242 ft 336 kts 176°
2026-05-04 15:55 31.60195 -16.59200 34032 ft 326 kts 177°
2026-05-04 15:55 31.57992 -16.58798 34729 ft 315 kts 178°
2026-05-04 15:56 31.55872 -16.58409 35445 ft 302 kts 179°
2026-05-04 15:56 31.53848 -16.58035 36155 ft 287 kts 180°
2026-05-04 15:56 31.51917 -16.57680 36318 ft 293 kts 181°
2026-05-04 15:56 31.49840 -16.57330 36211 ft 306 kts 181°
2026-05-04 15:57 31.47695 -16.56985 36212 ft 318 kts 180°
2026-05-04 15:57 31.45475 -16.56592 36291 ft 327 kts 180°
2026-05-04 15:57 31.40845 -16.55739 36432 ft 345 kts 180°
2026-05-04 15:58 31.35968 -16.55206 36584 ft 361 kts 183°
2026-05-04 15:58 31.30836 -16.54680 36738 ft 380 kts 182°
2026-05-04 15:59 31.25445 -16.54122 36874 ft 398 kts 183°
2026-05-04 15:59 31.19824 -16.53540 37037 ft 414 kts 183°
2026-05-04 16:00 31.13956 -16.52939 37089 ft 432 kts 182°
2026-05-04 16:00 31.07885 -16.52312 37089 ft 441 kts 182°
2026-05-04 16:01 31.01778 -16.51677 37086 ft 440 kts 182°
2026-05-04 16:01 30.95681 -16.51047 37086 ft 439 kts 183°
2026-05-04 16:02 30.89585 -16.50426 37086 ft 440 kts 183°
2026-05-04 16:03 30.80443 -16.49495 37086 ft 440 kts 183°
2026-05-04 16:03 30.74348 -16.48875 37083 ft 440 kts 183°
2026-05-04 16:04 30.68276 -16.48253 37094 ft 437 kts 184°
2026-05-04 16:04 30.59184 -16.47334 37080 ft 437 kts 184°
2026-05-04 16:05 30.53120 -16.46719 37080 ft 437 kts 184°
2026-05-04 16:06 30.44073 -16.45803 37080 ft 435 kts 184°
2026-05-04 16:07 30.32037 -16.44588 37086 ft 436 kts 184°
2026-05-04 16:08 30.19924 -16.43369 37073 ft 436 kts 184°
2026-05-04 16:09 30.05854 -16.41955 37075 ft 434 kts 184°
2026-05-04 16:10 29.93823 -16.40749 37075 ft 434 kts 184°
2026-05-04 16:11 29.81832 -16.39549 37074 ft 432 kts 184°
2026-05-04 16:12 29.63854 -16.37752 37070 ft 433 kts 184°
2026-05-04 16:13 29.57909 -16.36201 36888 ft 452 kts 170°
2026-05-04 16:13 29.52148 -16.32917 36374 ft 468 kts 160°
2026-05-04 16:14 29.46447 -16.29266 35876 ft 470 kts 161°
2026-05-04 16:14 29.40715 -16.25639 35384 ft 472 kts 161°
2026-05-04 16:15 29.32068 -16.20184 34249 ft 474 kts 161°
2026-05-04 16:16 29.26261 -16.16534 33119 ft 478 kts 160°
2026-05-04 16:16 29.17594 -16.11081 31462 ft 468 kts 159°
2026-05-04 16:17 29.11921 -16.07520 30390 ft 462 kts 159°
2026-05-04 16:18 29.03590 -16.02300 28637 ft 449 kts 159°
2026-05-04 16:18 29.00865 -16.00594 28061 ft 444 kts 159°
2026-05-04 16:19 28.93320 -15.94443 26394 ft 447 kts 146°
2026-05-04 16:19 28.88647 -15.89881 25396 ft 437 kts 146°
2026-05-04 16:20 28.81758 -15.83149 24359 ft 433 kts 146°
2026-05-04 16:20 28.77209 -15.78727 23735 ft 427 kts 146°
2026-05-04 16:21 28.70462 -15.72217 22637 ft 420 kts 146°
2026-05-04 16:22 28.66055 -15.67985 21914 ft 414 kts 146°
2026-05-04 16:22 28.59486 -15.61702 20808 ft 410 kts 146°
2026-05-04 16:23 28.53008 -15.55541 19581 ft 400 kts 146°
2026-05-04 16:24 28.44549 -15.47576 17894 ft 389 kts 146°
2026-05-04 16:25 28.40393 -15.43688 16911 ft 384 kts 148°
2026-05-04 16:26 28.30782 -15.41226 15039 ft 355 kts 175°
2026-05-04 16:26 28.23620 -15.39091 13703 ft 352 kts 171°
2026-05-04 16:27 28.18915 -15.37683 12729 ft 348 kts 171°
2026-05-04 16:28 28.11907 -15.35699 11204 ft 343 kts 171°
2026-05-04 16:28 28.04971 -15.34022 9625 ft 332 kts 173°
2026-05-04 16:29 27.96666 -15.32971 6840 ft 278 kts 181°
2026-05-04 16:30 27.90904 -15.33416 5346 ft 276 kts 189°
2026-05-04 16:31 27.87107 -15.33975 4915 ft 277 kts 188°
2026-05-04 16:31 27.81396 -15.34692 3888 ft 277 kts 186°
2026-05-04 16:32 27.75734 -15.35388 2992 ft 274 kts 186°
2026-05-04 16:33 27.72492 -15.37502 2790 ft 278 kts 236°
2026-05-04 16:33 27.71857 -15.41620 2668 ft 273 kts 290°
2026-05-04 16:34 27.74266 -15.44440 2516 ft 254 kts 345°
2026-05-04 16:34 27.75971 -15.44951 2457 ft 255 kts 350°
2026-05-04 16:35 27.80298 -15.44360 2213 ft 178 kts 22°
2026-05-04 16:35 27.83308 -15.43035 1924 ft 146 kts 22°
2026-05-04 16:36 27.84222 -15.42632 1718 ft 134 kts 23°
2026-05-04 16:36 27.86026 -15.41835 1350 ft 140 kts 22°
2026-05-04 16:37 27.87813 -15.41041 1000 ft 147 kts 21°
2026-05-04 16:37 27.88751 -15.40630 805 ft 138 kts 22°
2026-05-04 16:37 27.90517 -15.39846 449 ft 137 kts 22°
2026-05-04 16:38 27.92291 -15.39048 99 ft 132 kts 25°
2026-05-04 16:39 27.95717 -15.37717 1452 ft 226 kts 17°
2026-05-04 16:39 27.98962 -15.36699 2766 ft 253 kts 18°
2026-05-04 16:40 28.01364 -15.34002 2988 ft 256 kts 70°
2026-05-04 16:40 28.00830 -15.30093 2998 ft 263 kts 124°
2026-05-04 16:41 27.97639 -15.28194 3000 ft 273 kts 178°
2026-05-04 16:41 27.92101 -15.29832 2997 ft 276 kts 197°
2026-05-04 16:42 27.86641 -15.31721 3000 ft 271 kts 201°
2026-05-04 16:43 27.83279 -15.33739 2747 ft 277 kts 210°
2026-05-04 16:43 27.80023 -15.35908 2399 ft 251 kts 211°
2026-05-04 16:43 27.78570 -15.36878 2322 ft 245 kts 210°
2026-05-04 16:44 27.77813 -15.43382 2050 ft 223 kts 322°
2026-05-04 16:45 27.80450 -15.44106 2007 ft 194 kts 12°
2026-05-04 16:46 27.83977 -15.42734 1806 ft 174 kts 23°
2026-05-04 16:46 27.86147 -15.41778 1326 ft 167 kts 23°
2026-05-04 16:47 27.88080 -15.40924 939 ft 146 kts 21°
2026-05-04 16:47 27.89862 -15.40125 574 ft 138 kts 23°
2026-05-04 16:48 27.92428 -15.38994 89 ft 118 kts 22°
2026-05-04 16:48 27.93019 -15.38735 64 ft 62 kts 21°
2026-05-04 16:49 27.93559 -15.38495 59 ft 24 kts 21°
2026-05-04 16:49 27.93850 -15.38426 69 ft 17 kts 358°
2026-05-04 16:50 27.94008 -15.38457 74 ft 12 kts 341°
2026-05-04 16:50 27.94072 -15.38570 86 ft 5 kts 289°
2026-05-04 16:51 27.94048 -15.38633 88 ft 7 kts 216°
2026-05-04 16:51 27.93985 -15.38665 92 ft 10 kts 200°
2026-05-04 16:51 27.93923 -15.38712 92 ft 9 kts 250°
2026-05-04 16:52 27.93935 -15.38773 94 ft 2 kts 291°
2026-05-04 16:52 27.93937 -15.38778 94 ft 1 kts 291°
2026-05-04 16:53 27.93938 -15.38780 93 ft 0 kts 291°